EDT,Max TemperatureF,Mean TemperatureF,Min TemperatureF,Max Dew PointF,MeanDew PointF,Min DewpointF,Max Humidity, Mean Humidity, Min Humidity, Max Sea Level PressureIn, Mean Sea Level PressureIn, Min Sea Level PressureIn, Max VisibilityMiles, Mean VisibilityMiles, Min VisibilityMiles, Max Wind SpeedMPH, Mean Wind SpeedMPH, Max Gust SpeedMPH,PrecipitationIn, CloudCover, Events, WindDirDegrees
2013-7-1,75,72,69,72,70,69,100,91,87,30.07,30.00,29.94,10,9,4,10,2,,0.36,7,Rain-Thunderstorm,164
2013-7-2,82,76,71,72,71,69,94,85,67,30.18,30.12,30.06,10,10,4,14,7,20,0.01,7,Rain,178
2013-7-3,87,80,73,72,70,68,94,81,55,30.22,30.18,30.15,10,10,10,13,6,20,0.00,6,Rain,194
2013-7-4,91,82,73,72,71,67,94,76,46,30.22,30.17,30.11,10,10,10,15,6,22,0.00,3,,193
2013-7-5,93,82,73,72,71,66,93,70,44,30.18,30.12,30.05,10,10,6,13,6,,0.00,1,,197
2013-7-6,90,80,70,73,68,64,96,69,43,30.10,30.06,30.01,10,10,8,14,5,23,0.00,0,,272
2013-7-7,90,76,64,71,68,64,97,79,50,30.05,30.00,29.94,10,10,7,8,2,,0.00,1,Thunderstorm,185
2013-7-8,89,79,71,72,68,64,94,76,48,30.06,29.97,29.93,10,10,10,12,2,17,0.00,4,,293
2013-7-9,81,74,69,70,67,65,90,78,64,30.10,30.06,30.04,10,10,8,10,3,,0.00,7,,130
2013-7-10,84,76,69,75,71,66,97,85,65,30.05,29.88,29.80,10,8,1,15,6,21,0.39,7,Rain-Thunderstorm,178
2013-7-11,82,75,66,72,68,63,100,89,52,29.96,29.83,29.78,10,5,0,9,1,,0.00,3,Fog-Rain,295
2013-7-12,82,71,62,62,58,55,93,66,45,30.21,30.10,29.97,10,10,10,10,3,18,0.00,2,,63
2013-7-13,79,71,64,70,65,55,94,79,68,30.31,30.28,30.22,10,10,7,8,2,,0.02,8,Rain,249
2013-7-14,90,80,71,73,69,65,96,78,43,30.32,30.28,30.22,10,10,8,9,1,,0.00,5,,304
2013-7-15,93,80,68,71,67,62,100,77,36,30.24,30.20,30.13,10,7,0,15,2,20,0.00,3,Fog,317
2013-7-16,93,78,64,70,66,62,100,72,38,30.19,30.17,30.14,10,8,2,14,2,23,0.00,1,,337
2013-7-17,93,80,66,71,67,63,93,66,39,30.20,30.13,30.03,10,9,6,9,2,,0.00,1,,235
2013-7-18,96,83,71,74,70,63,93,67,34,30.03,29.99,29.94,10,10,5,13,4,,0.00,0,,273
2013-7-19,96,84,71,72,70,68,93,65,41,29.95,29.84,29.73,10,10,6,20,5,28,0.00,0,,213
2013-7-20,89,80,68,72,66,61,87,64,43,29.84,29.74,29.68,10,10,9,17,4,23,0.00,1,,251
2013-7-21,86,72,61,66,61,57,93,68,40,29.99,29.93,29.86,10,10,10,9,1,,0.00,2,,254
2013-7-22,84,74,63,67,65,61,93,75,49,30.01,29.95,29.88,10,10,10,9,2,16,0.00,3,Rain,112
2013-7-23,82,74,66,73,69,66,100,89,66,29.85,29.66,29.55,10,8,2,10,3,,1.37,6,Rain-Thunderstorm,360
2013-7-24,81,71,60,70,65,48,100,87,45,30.00,29.67,29.60,10,5,0,16,1,22,0.01,6,Fog,306
2013-7-25,71,62,55,58,51,45,84,68,52,30.11,30.07,30.01,10,10,10,10,7,,0.00,7,Rain,13
2013-7-26,71,65,57,62,59,57,97,85,68,30.07,30.03,30.00,10,10,10,13,6,,0.14,6,Rain,334
2013-7-27,82,68,54,64,59,54,100,85,44,30.08,30.04,29.99,10,5,0,10,1,,0.01,4,Fog,181
2013-7-28,81,68,57,68,60,57,100,85,47,30.02,30.00,29.96,10,7,0,12,1,,0.00,4,Fog-Rain,183
2013-7-29,84,75,66,66,63,59,90,75,43,30.08,30.01,29.97,10,10,10,10,2,17,0.00,5,,234
2013-7-30,80,68,55,59,55,52,97,66,38,30.13,30.10,30.06,10,10,10,12,3,18,0.00,2,,282
2013-7-31,81,68,55,62,57,53,96,69,39,30.17,30.10,30.05,10,10,10,10,1,,0.00,1,,189